Regional Weather Roundup
Issued by NWS

Home | Current Version | Previous Version | Text Only | Print | Product List | Glossary Off
Versions: 1 2 3 4 5 6 7 8 9 10 11 12 13 14 15 16 17 18 19 20 21 22 23 24 25 26 27

000
ASUS45 KCYS 091110
RWRWY

WYOMING REGIONAL WEATHER ROUNDUP
NATIONAL WEATHER SERVICE CHEYENNE WY
400 AM MST FRI DEC 09 2016

NOTE:  "FAIR" INDICATES FEW OR NO CLOUDS BELOW 12,000 FEET
WITH NO SIGNIFICANT WEATHER AND/OR OBSTRUCTIONS TO VISIBILITY.

WYZ001-091200-
YELLOWSTONE NATIONAL PARK

CITY           SKY/WX    TMP DP  RH WIND       PRES   REMARKS
LK YELLOWSTONE   N/A      8   6  92 CALM      29.99S
W YELLOWSTONE  NOT AVBL

$$
WYZ002>013-054>058-071-098>099-091200-
NORTHERN WYOMING

CITY           SKY/WX    TMP DP  RH WIND       PRES   REMARKS
JACKSON        CLOUDY    18  18 100 W3        30.05S
CODY           NOT AVBL
GREYBULL       CLOUDY    10   0  63 NW6       30.19R WCI   0
WORLAND        FAIR       2  -2  83 CALM      30.17R
SHERIDAN       CLOUDY     3  -2  79 N6        30.23R WCI  -8
BUFFALO        CLOUDY     1  -5  75 NW14      30.11R WCI -17
GILLETTE       CLOUDY    -1  -5  82 NW5       30.16R WCI -11
HULETT         CLOUDY    -2  -8  78 MISG      30.18R
NEWCASTLE      FAIR       7   1  78 CALM      30.14S

$$
WYZ014>020-022>026-101>103-091200-
CENTRAL WYOMING

CITY           SKY/WX    TMP DP  RH WIND       PRES   REMARKS
BIG PINEY      LGT SNOW  10   7  87 CALM      30.11S FOG
PINEDALE       LGT SNOW  10   9  92 N9        30.11S WCI  -2
DUBOIS         FLURRIES  23  18  80 N16G23    29.90S WCI  10
LANDER         FAIR       1  -3  83 N8        30.01R WCI -13
RIVERTON       FAIR       2  -3  80 NW3       30.03R
CASPER         FAIR     -11 -16  78 W3        30.02F
DOUGLAS        FAIR       1  -4  79 NW5       30.04F WCI  -9

$$
WYZ021-027>030-104>119-091200-
SOUTHERN WYOMING

CITY           SKY/WX    TMP DP  RH WIND       PRES   REMARKS
EVANSTON       LGT SNOW  30  28  92 SW16      30.12  FOG     WCI  19
FORT BRIDGER   CLOUDY    25  25 100 W9        30.12R WCI  16
ROCK SPRINGS   CLOUDY    11   8  88 N6        30.10R WCI   1
DIXON          CLOUDY    30  17  57 SW12G17   30.15F WCI  20
RAWLINS        CLOUDY    27  16  63 W25G36    30.02F WCI  12
SARATOGA       FAIR      30  21  69 SW24G36   30.02F WCI  16
LARAMIE        CLOUDY    26  21  81 SW18G28   29.99S WCI  13
CHEYENNE       FAIR      14   6  70 E6        29.98F WCI   5
TORRINGTON     CLOUDY    11   4  73 E9        30.09F WCI  -2
PINE BLUFFS    PTSUNNY   12   7  79 S8G21     30.08S WCI   1

$$




USA.gov is the U.S. government's official web portal to all federal, state and local government web resources and services.